Regional Weather Roundup
Issued by NWS Binghamton, NY

Home | Current Version | Previous Version | Text Only | Print | Product List | Glossary On
Versions: 1 2 3 4 5 6 7 8 9 10 11 12 13 14 15 16 17 18 19 20 21 22 23 24 25 26 27 28 29 30 31 32 33 34 35 36 37 38 39 40 41 42 43 44 45 46 47
000
ASUS41 KBGM 290710
RWRBGM
RWRBGM
BINGHAMTON REGIONAL WEATHER ROUNDUP
NATIONAL WEATHER SERVICE BINGHAMTON NY
300 AM EDT WED JUL 29 2015

Note: "fair" indicates few or no clouds below 12,000 feet with no
significant weather and/or obstructions to visibility.

* = Station(s) that does not report precipitation, such as rain,
snow, etc, also no thunder or fog.

!NYZ009-015>018-022>025-036-037-044>046-055>057-062-290800
...CENTRAL NEW YORK...

CITY           SKY/WX    TMP DP  RH WIND       PRES   REMARKS
BINGHAMTON     PTCLDY    71  63  75 CALM      30.05F
CORTLAND       FAIR      61  61 100 CALM      30.06F
DANSVILLE      CLEAR     68  64  87 SE8       30.03F
ELMIRA         PTCLDY    65  64  97 CALM      30.02F
ITHACA         PTCLDY    63  60  90 E6        30.05F
MONTICELLO     CLEAR     64  63  94 CALM      30.05S
NORWICH        CLEAR     57  57 100 CALM      30.05S
ONEONTA        CLEAR     63  63 100 CALM      30.07R
PENN YAN       FOG       69  66  90 SW5       30.02F VSB 1
ROME           PTCLDY    63  60  90 CALM      30.02R
SIDNEY         CLEAR     61  61 100 CALM      30.04S FOG
SYRACUSE       PTCLDY    66  61  84 E5        29.99F
$$

!PAZ038>040-043-044-047-048-072-290800
...NORTHEAST PENNSYLVANIA...

CITY           SKY/WX    TMP DP  RH WIND       PRES   REMARKS
HAZLETON       CLEAR     61  59  94 CALM      30.08F
SCRANTON       CLEAR     69  62  78 E6        30.02F
$$
&&
KEY
WCI = WIND CHILL INDEX
VSB = VISIBILITY
HX  = HEAT INDEX
$$


USA.gov is the U.S. government's official web portal to all federal, state and local government web resources and services.